This is the latest recevied weather packets stored in our database for station/object N5TDX. If no packets are shown the sender has not sent any weather packets the latest 10 day(s).
| Time | Temp. | Humidity | Pressure | Rain* | Wind** | Luminosity | Snow |
|---|---|---|---|---|---|---|---|
| 1777677474 | 17.78° C | 57% | 1012.5 hPa | 0 mm | - | - | - |
| 1777677173 | 17.78° C | 57% | 1012.7 hPa | 0 mm | - | - | - |
| 1777676870 | 17.78° C | 57% | 1012.5 hPa | 0 mm | - | - | - |
| 1777676569 | 17.78° C | 57% | 1012.5 hPa | 0 mm | - | - | - |
| 1777676266 | 17.78° C | 54% | 1012.5 hPa | 0 mm | - | - | - |
| 1777675963 | 17.78° C | 54% | 1012.2 hPa | 0 mm | - | - | - |
| 1777675659 | 17.22° C | 55% | 1012.4 hPa | 0 mm | - | - | - |
| 1777675357 | 17.22° C | 54% | 1012.3 hPa | 0 mm | - | - | - |
| 1777675053 | 17.78° C | 56% | 1012.4 hPa | 0 mm | - | - | - |
| 1777674750 | 17.78° C | 55% | 1012.3 hPa | 0 mm | - | - | - |
| 1777674446 | 17.78° C | 55% | 1012.5 hPa | 0 mm | - | - | - |
| 1777674144 | 17.78° C | 53% | 1012.4 hPa | 0 mm | - | - | - |
| 1777673840 | 17.78° C | 53% | 1012.6 hPa | 0 mm | - | - | - |
| 1777673537 | 17.78° C | 54% | 1012.6 hPa | 0 mm | - | - | - |
| 1777673234 | 17.78° C | 52% | 1012.6 hPa | 0 mm | - | - | - |
| 1777672932 | 17.78° C | 51% | 1012.5 hPa | 0 mm | - | - | - |
| 1777672629 | 17.78° C | 50% | 1012.6 hPa | 0 mm | - | - | - |
| 1777672324 | 17.78° C | 52% | 1012.5 hPa | 0 mm | - | - | - |
| 1777672018 | 17.78° C | 52% | 1012.5 hPa | 0 mm | - | - | - |
| 1777671715 | 17.78° C | 52% | 1012.6 hPa | 0 mm | - | - | - |
| 1777671412 | 17.78° C | 51% | 1012.4 hPa | 0 mm | - | - | - |
| 1777671107 | 17.78° C | 51% | 1012.7 hPa | 0 mm | - | - | - |
| 1777670804 | 17.78° C | 51% | 1012.3 hPa | 0 mm | - | - | - |
| 1777670501 | 17.78° C | 50% | 1012.4 hPa | 0 mm | - | - | - |
| 1777670198 | 17.78° C | 51% | 1012.6 hPa | 0 mm | - | - | - |
* Rain latest hour (hover to see other rain measurements)
** Current wind speed in m/s (hover to see current wind gust speed)